• In Moldova, Republic
  • List of Countries
  • For 7 days
  • Water Temperature
  • Satellite Maps
  • Weather Map
  • Weather Widgets
  • user-avatar
    Login

    Hourly Weather Mingachevir

    Today, 18 August, Friday

    Time Temperature Precipitation Wind Pressure Humidity
    00:00 +27°C° 0 mm 2 mps 751 mmHg 45%
    01:00 +27°C° 0 mm 2 mps 751 mmHg 46%
    02:00 +26°C° 0 mm 1 mps 751 mmHg 47%
    03:00 +26°C° 0 mm 1 mps 750 mmHg 47%
    04:00 +26°C° 0 mm 1 mps 750 mmHg 47%
    05:00 +26°C° 0 mm 1 mps 751 mmHg 46%
    06:00 +27°C° 0 mm 2 mps 751 mmHg 46%
    07:00 +28°C° 0 mm 2 mps 751 mmHg 41%
    08:00 +30°C° 0 mm 2 mps 751 mmHg 36%
    09:00 +33°C° 0 mm 3 mps 750 mmHg 31%
    10:00 +34°C° 0 mm 2 mps 750 mmHg 29%
    11:00 +35°C° 0 mm 2 mps 750 mmHg 27%
    12:00 +36°C° 0 mm 2 mps 750 mmHg 26%
    13:00 +37°C° 0 mm 2 mps 750 mmHg 25%
    14:00 +38°C° 0 mm 2 mps 749 mmHg 24%
    15:00 +38°C° 0 mm 2 mps 749 mmHg 23%
    16:00 +38°C° 0 mm 2 mps 749 mmHg 24%
    17:00 +38°C° 0 mm 2 mps 750 mmHg 25%
    18:00 +37°C° 0 mm 3 mps 750 mmHg 26%
    19:00 +35°C° 0 mm 3 mps 750 mmHg 30%
    20:00 +34°C° 0 mm 4 mps 751 mmHg 34%
    21:00 +32°C° 0 mm 4 mps 752 mmHg 38%
    22:00 +30°C° 0 mm 4 mps 752 mmHg 40%
    23:00 +29°C° 0 mm 3 mps 752 mmHg 42%

    Tomorrow, 19 August, Saturday

    Time Temperature Precipitation Wind Pressure Humidity
    00:00 +28°C° 0 mm 3 mps 752 mmHg 45%
    01:00 +28°C° 0 mm 3 mps 752 mmHg 46%
    02:00 +27°C° 0 mm 3 mps 752 mmHg 47%
    03:00 +27°C° 0 mm 2 mps 752 mmHg 49%
    04:00 +27°C° 0 mm 2 mps 753 mmHg 48%
    05:00 +27°C° 0 mm 2 mps 753 mmHg 48%
    06:00 +27°C° 0 mm 1 mps 753 mmHg 48%
    07:00 +29°C° 0 mm 1 mps 753 mmHg 41%
    08:00 +31°C° 0 mm 1 mps 753 mmHg 34%
    09:00 +33°C° 0 mm 1 mps 753 mmHg 27%
    10:00 +36°C° 0 mm 2 mps 753 mmHg 24%
    11:00 +37°C° 0 mm 3 mps 752 mmHg 22%
    12:00 +38°C° 0 mm 3 mps 752 mmHg 19%
    13:00 +40°C° 0 mm 4 mps 752 mmHg 19%
    14:00 +40°C° 0 mm 5 mps 752 mmHg 18%
    15:00 +41°C° 0 mm 5 mps 751 mmHg 17%
    16:00 +40°C° 0 mm 6 mps 752 mmHg 18%
    17:00 +39°C° 0 mm 6 mps 752 mmHg 19%
    18:00 +38°C° 0 mm 6 mps 752 mmHg 20%
    19:00 +35°C° 0 mm 6 mps 752 mmHg 21%
    20:00 +33°C° 0 mm 5 mps 753 mmHg 23%
    21:00 +30°C° 0 mm 4 mps 754 mmHg 24%
    22:00 +29°C° 0 mm 4 mps 754 mmHg 27%
    23:00 +28°C° 0 mm 3 mps 754 mmHg 30%

    Day after tomorrow, 20 August, Sunday

    Time Temperature Precipitation Wind Pressure Humidity
    00:00 +27°C° 0 mm 2 mps 754 mmHg 33%
    01:00 +27°C° 0 mm 2 mps 754 mmHg 34%
    02:00 +27°C° 0 mm 2 mps 753 mmHg 34%
    03:00 +26°C° 0 mm 2 mps 753 mmHg 35%
    04:00 +26°C° 0 mm 1 mps 753 mmHg 34%
    05:00 +26°C° 0 mm 1 mps 753 mmHg 34%
    06:00 +26°C° 0 mm 1 mps 754 mmHg 33%
    07:00 +29°C° 0 mm 1 mps 753 mmHg 29%
    08:00 +31°C° 0 mm 1 mps 753 mmHg 25%
    09:00 +33°C° 0 mm 1 mps 753 mmHg 20%
    10:00 +35°C° 0 mm 2 mps 753 mmHg 19%
    11:00 +37°C° 0 mm 3 mps 753 mmHg 17%
    12:00 +38°C° 0 mm 4 mps 752 mmHg 15%
    13:00 +40°C° 0 mm 4 mps 752 mmHg 15%
    14:00 +41°C° 0 mm 5 mps 752 mmHg 14%
    15:00 +41°C° 0 mm 5 mps 751 mmHg 14%
    16:00 +40°C° 0 mm 5 mps 751 mmHg 16%
    17:00 +39°C° 0 mm 5 mps 751 mmHg 18%
    18:00 +37°C° 0 mm 5 mps 751 mmHg 20%
    19:00 +35°C° 0 mm 5 mps 752 mmHg 24%
    20:00 +33°C° 0 mm 5 mps 752 mmHg 28%
    21:00 +30°C° 0 mm 4 mps 753 mmHg 33%
    22:00 +29°C° 0 mm 3 mps 753 mmHg 35%
    23:00 +28°C° 0 mm 3 mps 753 mmHg 37%

    21 August, Monday

    Time Temperature Precipitation Wind Pressure Humidity
    00:00 +27°C° 0 mm 2 mps 753 mmHg 39%
    01:00 +27°C° 0 mm 2 mps 753 mmHg 38%
    02:00 +26°C° 0 mm 1 mps 752 mmHg 38%
    03:00 +26°C° 0 mm 1 mps 752 mmHg 38%
    04:00 +26°C° 0 mm 1 mps 752 mmHg 37%
    05:00 +26°C° 0 mm 2 mps 752 mmHg 36%
    06:00 +27°C° 0 mm 2 mps 752 mmHg 35%
    07:00 +29°C° 0 mm 2 mps 752 mmHg 30%
    08:00 +31°C° 0 mm 2 mps 752 mmHg 26%
    09:00 +34°C° 0 mm 2 mps 752 mmHg 22%
    10:00 +35°C° 0 mm 2 mps 751 mmHg 20%
    11:00 +37°C° 0 mm 3 mps 751 mmHg 19%
    12:00 +38°C° 0 mm 3 mps 750 mmHg 17%
    13:00 +39°C° 0 mm 3 mps 750 mmHg 17%
    14:00 +41°C° 0 mm 4 mps 750 mmHg 16%
    15:00 +41°C° 0 mm 4 mps 749 mmHg 16%
    16:00 +40°C° 0 mm 4 mps 749 mmHg 18%
    17:00 +40°C° 0 mm 4 mps 749 mmHg 20%
    18:00 +38°C° 0 mm 4 mps 749 mmHg 21%
    19:00 +36°C° 0 mm 4 mps 750 mmHg 24%
    20:00 +34°C° 0 mm 4 mps 750 mmHg 26%
    21:00 +32°C° 0 mm 4 mps 751 mmHg 29%
    22:00 +30°C° 0 mm 3 mps 751 mmHg 31%
    23:00 +29°C° 0 mm 3 mps 751 mmHg 33%

    22 August, Tuesday

    Time Temperature Precipitation Wind Pressure Humidity
    00:00 +28°C° 0 mm 2 mps 751 mmHg 35%
    01:00 +27°C° 0 mm 2 mps 751 mmHg 36%
    02:00 +27°C° 0 mm 1 mps 751 mmHg 37%
    03:00 +26°C° 0 mm 1 mps 750 mmHg 38%
    04:00 +26°C° 0 mm 1 mps 751 mmHg 38%
    05:00 +26°C° 0 mm 1 mps 751 mmHg 38%
    06:00 +27°C° 0 mm 1 mps 751 mmHg 38%
    07:00 +29°C° 0 mm 1 mps 751 mmHg 33%
    08:00 +31°C° 0 mm 1 mps 751 mmHg 28%
    09:00 +34°C° 0 mm 2 mps 750 mmHg 22%
    10:00 +36°C° 0 mm 2 mps 750 mmHg 21%
    11:00 +37°C° 0 mm 3 mps 750 mmHg 19%
    12:00 +38°C° 0 mm 3 mps 749 mmHg 17%
    13:00 +40°C° 0 mm 4 mps 749 mmHg 17%
    14:00 +41°C° 0 mm 4 mps 748 mmHg 16%
    15:00 +42°C° 0 mm 4 mps 748 mmHg 16%
    16:00 +41°C° 0 mm 4 mps 748 mmHg 18%
    17:00 +40°C° 0 mm 5 mps 748 mmHg 19%
    18:00 +39°C° 0 mm 5 mps 749 mmHg 21%
    19:00 +36°C° 0 mm 5 mps 749 mmHg 24%
    20:00 +33°C° 0 mm 4 mps 750 mmHg 26%
    21:00 +30°C° 0 mm 4 mps 750 mmHg 29%
    22:00 +29°C° 0 mm 4 mps 750 mmHg 32%
    23:00 +28°C° 0 mm 3 mps 750 mmHg 34%

    23 August, Wednesday

    Time Temperature Precipitation Wind Pressure Humidity
    00:00 +27°C° 0 mm 2 mps 750 mmHg 37%
    01:00 +27°C° 0 mm 2 mps 751 mmHg 38%
    02:00 +26°C° 0 mm 1 mps 751 mmHg 40%
    03:00 +26°C° 0 mm 1 mps 751 mmHg 41%
    04:00 +26°C° 0 mm 1 mps 751 mmHg 41%
    05:00 +26°C° 0 mm 1 mps 751 mmHg 40%
    06:00 +26°C° 0 mm 1 mps 751 mmHg 40%
    07:00 +28°C° 0 mm 1 mps 751 mmHg 34%
    08:00 +31°C° 0 mm 1 mps 751 mmHg 28%
    09:00 +34°C° 0 mm 2 mps 751 mmHg 21%
    10:00 +36°C° 0 mm 3 mps 751 mmHg 19%
    11:00 +37°C° 0 mm 4 mps 751 mmHg 16%
    12:00 +40°C° 0 mm 5 mps 750 mmHg 14%
    13:00 +40°C° 0 mm 5 mps 750 mmHg 14%
    14:00 +41°C° 0 mm 5 mps 750 mmHg 14%
    15:00 +41°C° 0 mm 6 mps 750 mmHg 14%
    16:00 +40°C° 0 mm 6 mps 750 mmHg 16%
    17:00 +39°C° 0 mm 6 mps 750 mmHg 18%
    18:00 +38°C° 0 mm 7 mps 751 mmHg 19%
    19:00 +34°C° 0 mm 6 mps 751 mmHg 22%
    20:00 +32°C° 0 mm 5 mps 752 mmHg 25%
    21:00 +29°C° 0 mm 4 mps 752 mmHg 27%
    22:00 +28°C° 0 mm 3 mps 752 mmHg 29%
    23:00 +27°C° 0 mm 3 mps 752 mmHg 30%
    Show more